,,PA_Meas_PMT16A,,PR_Meas_QMR101_102,,RH_Meas_QMH101,,SR_Meas_QMS101,,TA_Meas_QMH101,,GenWind,,GenWind,
time,status,PA,status,PR,status,RH,status,SR,status,TA,status,DirAvg,status,SpdAvg,
2016-04-05, 07:09:04,INVALID - VALUE NOT AVAILABLE,0,VALID,0,VALID,104,VALID,105.937,VALID,20.5999,INVALID,360,INVALID,0,
2016-04-05, 07:10:04,VALID,917.95,VALID,0,VALID,104,VALID,116.359,VALID,20.6194,VALID,108,VALID,0,
2016-04-05, 07:11:04,VALID,917.918,VALID,0,VALID,104,VALID,118.508,VALID,20.6585,VALID,119,VALID,0,
2016-04-05, 07:12:04,VALID,917.922,VALID,0,INVALID,109.114,VALID,103.036,VALID,20.6585,VALID,128,VALID,0,
2016-04-05, 07:13:04,VALID,917.933,VALID,0,INVALID,109.19,VALID,112.813,VALID,20.6585,VALID,126,VALID,0,
2016-04-05, 07:14:04,VALID,917.944,VALID,0,INVALID,109.221,VALID,125.384,VALID,20.678,VALID,130,VALID,0,
2016-04-05, 07:15:04,VALID,917.928,VALID,0,INVALID,109.335,VALID,144.723,VALID,20.678,VALID,127,VALID,0,
2016-04-05, 07:16:04,VALID,917.939,VALID,0,INVALID,109.32,VALID,134.087,VALID,20.756,VALID,140,VALID,0,
2016-04-05, 07:17:04,VALID,917.932,VALID,0,INVALID,109.32,VALID,145.046,VALID,20.834,VALID,137,VALID,0,
2016-04-05, 07:18:04,VALID,917.94,VALID,0,INVALID,109.381,VALID,174.377,VALID,20.873,VALID,141,VALID,0,
2016-04-05, 07:19:04,VALID,917.965,VALID,0,INVALID,109.449,VALID,182.757,VALID,20.9316,VALID,140,VALID,0,
2016-04-05, 07:20:04,VALID,917.976,VALID,0,INVALID,109.495,VALID,190.601,VALID,20.9901,VALID,127,VALID,0,
2016-04-05, 07:21:04,VALID,918.027,VALID,0,INVALID,109.556,VALID,170.402,VALID,21.0486,VALID,194,VALID,0,
2016-04-05, 07:22:04,VALID,918.051,VALID,0,INVALID,109.754,VALID,181.253,VALID,21.0681,VALID,163,VALID,0,
2016-04-05, 07:23:04,VALID,918.128,VALID,0,INVALID,109.907,VALID,196.295,VALID,21.0876,VALID,174,VALID,0,
2016-04-05, 07:24:04,VALID,918.134,VALID,0,INVALID,110.059,VALID,185.658,VALID,21.0876,VALID,162,VALID,0,
2016-04-05, 07:25:04,VALID,918.196,VALID,0,INVALID,110.113,VALID,140.426,VALID,21.1071,VALID,161,VALID,0,
2016-04-05, 07:26:04,VALID,918.241,VALID,0,INVALID,110.158,VALID,133.012,VALID,21.0876,VALID,157,VALID,0,
2016-04-05, 07:27:04,VALID,918.236,VALID,0,INVALID,110.059,VALID,130.756,VALID,21.125,VALID,157,VALID,0,
2016-04-05, 07:28:04,VALID,918.294,VALID,0,INVALID,110.006,VALID,127.21,VALID,21.2226,VALID,157,VALID,0,
2016-04-05, 07:29:04,VALID,918.333,VALID,0,INVALID,109.96,VALID,130.004,VALID,21.3022,VALID,157,VALID,0,
2016-04-05, 07:30:04,VALID,918.331,VALID,0,INVALID,109.991,VALID,129.359,VALID,21.3396,VALID,157,VALID,0,
2016-04-05, 07:31:04,VALID,918.375,VALID,0,INVALID,109.983,VALID,130.111,VALID,21.3786,VALID,148,VALID,0,
2016-04-05, 07:32:04,VALID,918.432,VALID,0,INVALID,109.983,VALID,130.434,VALID,21.4177,VALID,70,VALID,0,
2016-04-05, 07:33:04,VALID,918.414,VALID,0,INVALID,109.991,VALID,130.326,VALID,21.4177,VALID,76,VALID,0,
2016-04-05, 07:34:04,VALID,918.432,VALID,0,INVALID,110.021,VALID,129.359,VALID,21.4177,VALID,71,VALID,0,
2016-04-05, 07:35:04,VALID,918.445,VALID,0,INVALID,110.029,VALID,127.962,VALID,21.377,VALID,62,VALID,0,
2016-04-05, 07:36:04,VALID,918.451,VALID,0,INVALID,109.998,VALID,127.318,VALID,21.3786,VALID,70,VALID,0,
2016-04-05, 07:37:04,VALID,918.478,VALID,0,INVALID,109.991,VALID,128.714,VALID,21.3591,VALID,86,VALID,0,
2016-04-05, 07:38:04,VALID,918.5,VALID,0,INVALID,109.922,VALID,129.681,VALID,21.3591,VALID,57,VALID,0.8625,
2016-04-05, 07:39:04,VALID,918.498,VALID,0,INVALID,109.922,VALID,131.938,VALID,21.3591,VALID,97,VALID,0.739062,
2016-04-05, 07:40:04,VALID,918.542,VALID,0,INVALID,109.899,VALID,138.384,VALID,21.377,VALID,105,VALID,0.528516,
2016-04-05, 07:41:04,VALID,918.577,VALID,0,INVALID,109.792,VALID,162.666,VALID,21.3201,VALID,100,VALID,1.40781,
2016-04-05, 07:42:04,VALID,918.588,VALID,0,INVALID,109.709,VALID,198.336,VALID,21.3575,VALID,56,VALID,0,
2016-04-05, 07:43:04,VALID,918.641,VALID,0,INVALID,109.762,VALID,178.89,VALID,21.4177,VALID,83,VALID,0,
2016-04-05, 07:44:04,VALID,918.636,VALID,0,INVALID,109.701,VALID,218.858,VALID,21.4762,VALID,88,VALID,0,
2016-04-05, 07:45:04,VALID,918.641,VALID,0,INVALID,109.632,VALID,240.561,VALID,21.455,VALID,84,VALID,0,
2016-04-05, 07:46:04,VALID,918.672,VALID,0,INVALID,109.526,VALID,266.561,VALID,21.5136,VALID,74,VALID,0,
2016-04-05, 07:47:04,VALID,918.661,VALID,0,INVALID,109.526,VALID,260.975,VALID,21.6128,VALID,46,VALID,0.546875,
2016-04-05, 07:48:04,VALID,918.665,VALID,0,INVALID,109.427,VALID,265.487,VALID,21.6306,VALID,59,VALID,1.55156,
2016-04-05, 07:49:04,VALID,918.681,VALID,0,VALID,104,VALID,267.743,VALID,21.6518,VALID,52,VALID,1.60078,
2016-04-05, 07:50:04,VALID,918.71,VALID,0,VALID,104,VALID,265.487,VALID,21.6501,VALID,66,VALID,1.37891,
2016-04-05, 07:51:04,VALID,918.726,VALID,0,VALID,104,VALID,261.082,VALID,21.7282,VALID,70,VALID,0.01875,
2016-04-05, 07:52:04,VALID,918.762,VALID,0,VALID,104,VALID,269.677,VALID,21.8452,VALID,78,VALID,0,
2016-04-05, 07:53:04,VALID,918.766,VALID,0,VALID,104,VALID,264.842,VALID,21.9428,VALID,78,VALID,0,
2016-04-05, 07:54:04,VALID,918.808,VALID,0,VALID,104,VALID,279.132,VALID,22.1574,VALID,65,VALID,0,
2016-04-05, 07:55:04,VALID,918.794,VALID,0,VALID,104,VALID,282.14,VALID,22.3525,VALID,77,VALID,0,
2016-04-05, 07:56:04,VALID,918.852,VALID,0,VALID,104,VALID,287.298,VALID,22.5477,VALID,77,VALID,0,
2016-04-05, 07:57:04,VALID,918.825,VALID,0,VALID,103.534,VALID,285.364,VALID,22.7623,VALID,66,VALID,0,
2016-04-05, 07:58:04,VALID,918.859,VALID,0,VALID,103.625,VALID,283.107,VALID,23.016,VALID,66,VALID,0,
2016-04-05, 07:59:04,VALID,918.864,VALID,0,VALID,102.642,VALID,288.05,VALID,23.3283,VALID,69,VALID,0,
2016-04-05, 08:00:04,VALID,918.881,VALID,0,VALID,100.881,VALID,292.992,VALID,23.4845,VALID,72,VALID,0,
2016-04-05, 08:01:04,VALID,918.893,VALID,0,VALID,100.202,VALID,305.133,VALID,23.6034,VALID,57,VALID,0,
2016-04-05, 08:02:04,VALID,918.908,VALID,0,VALID,98.4107,VALID,309.108,VALID,23.6406,VALID,57,VALID,0,
2016-04-05, 08:03:04,VALID,918.922,VALID,0,VALID,98.9977,VALID,314.265,VALID,23.7382,VALID,57,VALID,0,
2016-04-05, 08:04:04,VALID,918.947,VALID,0,VALID,92.838,VALID,315.984,VALID,23.9139,VALID,57,VALID,0,
2016-04-05, 08:05:04,VALID,918.927,VALID,0,VALID,85.0697,VALID,317.274,VALID,24.1873,VALID,89,VALID,0,
2016-04-05, 08:06:04,VALID,918.96,VALID,0,VALID,82.958,VALID,319.423,VALID,24.2458,VALID,100,VALID,0,
2016-04-05, 08:07:04,VALID,918.996,VALID,0,VALID,86.7468,VALID,319.1,VALID,24.2672,VALID,76,VALID,0,
2016-04-05, 08:08:04,VALID,918.985,VALID,0,VALID,88.9729,VALID,323.183,VALID,24.3435,VALID,56,VALID,0,
2016-04-05, 08:09:04,VALID,918.988,VALID,0,VALID,85.6872,VALID,327.481,VALID,24.4978,VALID,57,VALID,0,
2016-04-05, 08:10:04,VALID,919.032,VALID,0,VALID,82.3253,VALID,335.216,VALID,24.5973,VALID,127,VALID,0,
2016-04-05, 08:11:04,VALID,919.033,VALID,0,VALID,79.7333,VALID,339.407,VALID,24.5564,VALID,146,VALID,0,
2016-04-05, 08:12:04,VALID,919.012,VALID,0,VALID,78.1781,VALID,344.241,VALID,24.5759,VALID,147,VALID,0,
2016-04-05, 08:13:04,VALID,919.032,VALID,0,VALID,79.3216,VALID,316.522,VALID,24.6754,VALID,148,VALID,0,
2016-04-05, 08:14:04,VALID,919.057,VALID,0,VALID,79.1387,VALID,214.345,VALID,24.6521,VALID,148,VALID,0,
2016-04-05, 08:15:04,VALID,919.039,VALID,0,VALID,78.7499,VALID,206.18,VALID,24.654,VALID,170,VALID,0,
2016-04-05, 08:16:04,VALID,919.071,VALID,0,VALID,77.6674,VALID,271.826,VALID,24.654,VALID,170,VALID,0,
2016-04-05, 08:17:04,VALID,919.052,VALID,0,VALID,77.2862,VALID,315.877,VALID,24.6345,VALID,169,VALID,0,
2016-04-05, 08:18:04,VALID,919.07,VALID,0,VALID,78.2162,VALID,312.654,VALID,24.6345,VALID,170,VALID,0,
2016-04-05, 08:19:04,VALID,919.08,VALID,0,VALID,77.4463,VALID,310.29,VALID,24.574,VALID,153,VALID,0,
2016-04-05, 08:20:04,VALID,919.065,VALID,0,VALID,78.2391,VALID,330.059,VALID,24.5387,VALID,120,VALID,0,
2016-04-05, 08:21:04,VALID,919.073,VALID,0,VALID,78.4221,VALID,322.968,VALID,24.6754,VALID,169,VALID,0,
2016-04-05, 08:22:04,VALID,919.069,VALID,0,VALID,77.4615,VALID,286.331,VALID,24.734,VALID,177,VALID,0,
2016-04-05, 08:23:04,VALID,919.075,VALID,0,VALID,79.314,VALID,260.867,VALID,24.7321,VALID,338,VALID,0,
2016-04-05, 08:24:04,VALID,919.102,VALID,0,VALID,79.6495,VALID,253.561,VALID,24.7516,VALID,320,VALID,0,
2016-04-05, 08:25:04,VALID,919.07,VALID,0,VALID,80.1069,VALID,252.702,VALID,24.5954,VALID,304,VALID,0,
2016-04-05, 08:26:04,VALID,919.102,VALID,0,VALID,84.0177,VALID,255.28,VALID,24.3416,VALID,299,VALID,0,
2016-04-05, 08:27:04,VALID,919.148,VALID,0,VALID,83.4612,VALID,206.287,VALID,24.1659,VALID,292,VALID,0,
2016-04-05, 08:28:04,VALID,919.214,VALID,0,VALID,85.1917,VALID,262.801,VALID,24.0488,VALID,292,VALID,0,
2016-04-05, 08:29:04,VALID,919.225,VALID,0,VALID,87.0213,VALID,351.01,VALID,23.9707,VALID,293,VALID,0,
2016-04-05, 08:30:04,VALID,919.239,VALID,0,VALID,87.1051,VALID,374.218,VALID,23.9707,VALID,297,VALID,0,
2016-04-05, 08:31:04,VALID,919.254,VALID,0,VALID,84.0939,VALID,395.383,VALID,23.9512,VALID,281,VALID,0,
2016-04-05, 08:32:04,VALID,919.265,VALID,0,VALID,85.2527,VALID,400.433,VALID,24.0097,VALID,322,VALID,0,
2016-04-05, 08:33:04,VALID,919.292,VALID,0,VALID,82.4244,VALID,391.838,VALID,24.1854,VALID,322,VALID,0,
2016-04-05, 08:34:04,VALID,919.286,VALID,0,VALID,80.2822,VALID,321.786,VALID,24.283,VALID,321,VALID,0,
2016-04-05, 08:35:04,VALID,919.267,VALID,0,VALID,79.7486,VALID,330.919,VALID,24.2049,VALID,321,VALID,0,
2016-04-05, 08:36:04,VALID,919.301,VALID,0,VALID,80.2593,VALID,299.224,VALID,24.0469,VALID,321,VALID,0,
2016-04-05, 08:37:04,VALID,919.33,VALID,0,VALID,80.5414,VALID,313.621,VALID,23.8713,VALID,314,VALID,0,
2016-04-05, 08:38:04,VALID,919.355,VALID,0,VALID,82.3863,VALID,337.473,VALID,23.6956,VALID,292,VALID,0,
2016-04-05, 08:39:04,VALID,919.354,VALID,0,VALID,86.5563,VALID,327.051,VALID,23.6016,VALID,285,VALID,0,
2016-04-05, 08:40:04,VALID,919.378,VALID,0,VALID,88.2334,VALID,299.224,VALID,23.5004,VALID,285,VALID,0,
2016-04-05, 08:41:04,VALID,919.398,VALID,0,VALID,96.5277,VALID,301.158,VALID,23.5217,VALID,325,VALID,0,
2016-04-05, 08:42:04,VALID,919.458,VALID,0,VALID,97.5492,VALID,282.678,VALID,23.6175,VALID,352,VALID,0,
2016-04-05, 08:43:04,VALID,919.448,VALID,0,VALID,97.1376,VALID,271.181,VALID,23.7542,VALID,349,VALID,0,
2016-04-05, 08:44:04,VALID,919.493,VALID,0,VALID,90.7034,VALID,259.47,VALID,23.8145,VALID,360,VALID,0,
2016-04-05, 08:45:04,VALID,919.546,VALID,0,VALID,97.5187,VALID,249.478,VALID,23.7542,VALID,349,VALID,0,
2016-04-05, 08:46:04,VALID,919.565,VALID,0,VALID,96.7411,VALID,234.759,VALID,23.8145,VALID,355,VALID,0,
2016-04-05, 08:47:04,VALID,919.584,VALID,0,VALID,99.0892,VALID,225.734,VALID,23.9121,VALID,357,VALID,0,
2016-04-05, 08:48:04,VALID,919.554,VALID,0,VALID,97.5035,VALID,220.792,VALID,23.9884,VALID,19,VALID,0,
2016-04-05, 08:49:04,VALID,919.579,VALID,0,VALID,98.7537,VALID,218.643,VALID,24.0878,VALID,41,VALID,0,
2016-04-05, 08:50:04,VALID,919.538,VALID,0,VALID,94.0501,VALID,217.783,VALID,24.1055,VALID,48,VALID,0,
2016-04-05, 08:51:04,VALID,919.538,VALID,0,VALID,97.6331,VALID,218.75,VALID,24.086,VALID,28,VALID,0,
2016-04-05, 08:52:04,VALID,919.538,VALID,0,VALID,99.9506,VALID,222.726,VALID,24.1073,VALID,39,VALID,0,
2016-04-05, 08:53:04,VALID,919.541,VALID,0,VALID,96.2151,VALID,228.957,VALID,24.0665,VALID,40,VALID,0.00117188,
2016-04-05, 08:54:04,VALID,919.562,VALID,0,VALID,99.9735,VALID,237.445,VALID,24.1269,VALID,24,VALID,0,
2016-04-05, 08:55:04,VALID,919.607,VALID,0,VALID,97.8847,VALID,249.586,VALID,24.1445,VALID,27,VALID,0,
2016-04-05, 08:56:04,VALID,919.583,VALID,0,VALID,98.2811,VALID,261.619,VALID,24.0274,VALID,44,VALID,0,
2016-04-05, 08:57:04,VALID,919.599,VALID,0,VALID,101.132,VALID,268.603,VALID,23.9316,VALID,20,VALID,0,
2016-04-05, 08:58:04,VALID,919.64,VALID,0,VALID,101.658,VALID,263.768,VALID,23.8145,VALID,5,VALID,0,
2016-04-05, 08:59:04,VALID,919.68,VALID,0,VALID,103.13,VALID,245.503,VALID,23.7737,VALID,357,VALID,0,
2016-04-05, 09:00:04,VALID,919.658,VALID,0,VALID,103.511,VALID,232.503,VALID,23.8517,VALID,19,VALID,0,
2016-04-05, 09:01:04,VALID,919.685,VALID,0,VALID,101.071,VALID,225.519,VALID,23.9316,VALID,341,VALID,0,
2016-04-05, 09:02:04,VALID,919.696,VALID,0,VALID,98.4717,VALID,224.874,VALID,23.8731,VALID,339,VALID,0,
2016-04-05, 09:03:04,VALID,919.716,VALID,0,VALID,100.515,VALID,229.817,VALID,23.7737,VALID,34,VALID,0,
2016-04-05, 09:04:04,VALID,919.731,VALID,0,VALID,101.59,VALID,239.271,VALID,23.7364,VALID,11,VALID,0,
2016-04-05, 09:05:04,VALID,919.718,VALID,0,VALID,100.782,VALID,252.272,VALID,23.598,VALID,5,VALID,0,
2016-04-05, 09:06:04,VALID,919.721,VALID,0,VALID,100.865,VALID,269.248,VALID,23.4827,VALID,3,VALID,0,
2016-04-05, 09:07:04,VALID,919.719,VALID,0,VALID,102.779,VALID,288.157,VALID,23.4224,VALID,4,VALID,0,
2016-04-05, 09:08:04,VALID,919.705,VALID,0,VALID,102.748,VALID,313.084,VALID,23.4614,VALID,3,VALID,0,
2016-04-05, 09:09:04,VALID,919.73,VALID,0,VALID,102.68,VALID,335.646,VALID,23.5608,VALID,341,VALID,0,
2016-04-05, 09:10:04,VALID,919.691,VALID,0,VALID,103.145,VALID,343.382,VALID,23.6974,VALID,21,VALID,0,
2016-04-05, 09:11:04,VALID,919.696,VALID,0,VALID,102.428,VALID,346.39,VALID,23.8536,VALID,345,VALID,0,
2016-04-05, 09:12:04,VALID,919.682,VALID,0,VALID,98.8452,VALID,352.944,VALID,23.8731,VALID,16,VALID,0,
2016-04-05, 09:13:04,VALID,919.706,VALID,0,VALID,102.352,VALID,355.738,VALID,24.0292,VALID,6,VALID,0,
2016-04-05, 09:14:04,VALID,919.661,VALID,0,VALID,99.4551,VALID,381.309,VALID,24.1854,VALID,358,VALID,0,
2016-04-05, 09:15:04,VALID,919.699,VALID,0,VALID,97.6331,VALID,366.267,VALID,24.3416,VALID,360,VALID,0,
2016-04-05, 09:16:04,VALID,919.71,VALID,0,VALID,84.7648,VALID,369.49,VALID,24.3983,VALID,360,VALID,0,
2016-04-05, 09:17:04,VALID,919.735,VALID,0,VALID,80.5643,VALID,418.161,VALID,24.4178,VALID,360,VALID,0,
2016-04-05, 09:18:04,VALID,919.71,VALID,0,VALID,78.5059,VALID,416.012,VALID,24.3788,VALID,24,VALID,0,
2016-04-05, 09:19:04,VALID,919.713,VALID,0,VALID,78.5136,VALID,393.449,VALID,24.3221,VALID,20,VALID,0,
2016-04-05, 09:20:04,VALID,919.732,VALID,0,VALID,83.8652,VALID,387.003,VALID,24.4587,VALID,12,VALID,0,
2016-04-05, 09:21:04,VALID,919.71,VALID,0,VALID,80.1069,VALID,359.391,VALID,24.4569,VALID,319,VALID,0,
2016-04-05, 09:22:04,VALID,919.711,VALID,0,VALID,78.6432,VALID,346.068,VALID,24.3806,VALID,328,VALID,0,
2016-04-05, 09:23:04,VALID,919.694,VALID,0,VALID,79.4512,VALID,338.117,VALID,24.3026,VALID,300,VALID,0,
2016-04-05, 09:24:04,VALID,919.701,VALID,0,VALID,81.5477,VALID,334.035,VALID,24.3593,VALID,300,VALID,0,
2016-04-05, 09:25:04,VALID,919.708,VALID,0,VALID,82.8589,VALID,326.514,VALID,24.4764,VALID,299,VALID,0,
2016-04-05, 09:26:04,VALID,919.704,VALID,0,VALID,82.6073,VALID,317.274,VALID,24.6521,VALID,324,VALID,0,
2016-04-05, 09:27:04,VALID,919.723,VALID,0,VALID,79.5427,VALID,317.381,VALID,24.6716,VALID,320,VALID,0,
2016-04-05, 09:28:04,VALID,919.717,VALID,0,VALID,81.8374,VALID,334.894,VALID,24.7693,VALID,324,VALID,0,
2016-04-05, 09:29:04,VALID,919.704,VALID,0,VALID,80.3584,VALID,358.316,VALID,24.9274,VALID,6,VALID,0,
2016-04-05, 09:30:04,VALID,919.748,VALID,0,VALID,79.4436,VALID,360.035,VALID,24.9645,VALID,37,VALID,0,
2016-04-05, 09:31:04,VALID,919.77,VALID,0,VALID,79.0167,VALID,344.456,VALID,24.984,VALID,30,VALID,0,
2016-04-05, 09:32:04,VALID,919.762,VALID,0,VALID,81.4333,VALID,339.084,VALID,25.0231,VALID,30,VALID,0,
2016-04-05, 09:33:04,VALID,919.795,VALID,0,VALID,80.7625,VALID,322.753,VALID,25.2007,VALID,30,VALID,0,
2016-04-05, 09:34:04,VALID,919.808,VALID,0,VALID,77.0422,VALID,315.555,VALID,25.2965,VALID,35,VALID,0,
2016-04-05, 09:35:04,VALID,919.82,VALID,0,VALID,76.9431,VALID,317.918,VALID,25.2945,VALID,48,VALID,0,
2016-04-05, 09:36:04,VALID,919.854,VALID,0,VALID,76.6153,VALID,318.133,VALID,25.3941,VALID,44,VALID,0,
2016-04-05, 09:37:04,VALID,919.846,VALID,0,VALID,77.1718,VALID,324.043,VALID,25.3355,VALID,302,VALID,0,
2016-04-05, 09:38:04,VALID,919.825,VALID,0,VALID,77.4158,VALID,343.597,VALID,25.2574,VALID,320,VALID,0,
2016-04-05, 09:39:04,VALID,919.859,VALID,0,VALID,77.6597,VALID,340.588,VALID,25.2984,VALID,7,VALID,0,
2016-04-05, 09:40:04,VALID,919.855,VALID,0,VALID,79.0853,VALID,371.209,VALID,25.3746,VALID,17,VALID,0,
2016-04-05, 09:41:04,VALID,919.873,VALID,0,VALID,77.4996,VALID,357.779,VALID,25.4546,VALID,16,VALID,0,
2016-04-05, 09:42:04,VALID,919.883,VALID,0,VALID,78.3382,VALID,359.82,VALID,25.5132,VALID,25,VALID,0,
2016-04-05, 09:43:04,VALID,919.893,VALID,0,VALID,76.7449,VALID,357.994,VALID,25.6109,VALID,31,VALID,0,
2016-04-05, 09:44:04,VALID,919.876,VALID,0,VALID,76.3104,VALID,345.423,VALID,25.648,VALID,31,VALID,0,
2016-04-05, 09:45:04,VALID,919.869,VALID,0,VALID,74.9534,VALID,335.861,VALID,25.648,VALID,31,VALID,0,
2016-04-05, 09:46:04,VALID,919.891,VALID,0,VALID,73.4516,VALID,333.39,VALID,25.7651,VALID,31,VALID,0,
2016-04-05, 09:47:04,VALID,919.844,VALID,0,VALID,73.2153,VALID,338.869,VALID,25.7651,VALID,347,VALID,0,
2016-04-05, 09:48:04,VALID,919.839,VALID,0,VALID,74.8162,VALID,343.382,VALID,25.6265,VALID,24,VALID,0,
2016-04-05, 09:49:04,VALID,919.826,VALID,0,VALID,73.5507,VALID,355.845,VALID,25.4507,VALID,314,VALID,0,
2016-04-05, 09:50:04,VALID,919.816,VALID,0,VALID,76.2799,VALID,373.68,VALID,25.2164,VALID,309,VALID,0,
2016-04-05, 09:51:04,VALID,919.783,VALID,0,VALID,76.0741,VALID,401.615,VALID,25.275,INVALID,360,VALID,0,
2016-04-05, 09:52:04,VALID,919.819,VALID,0,VALID,76.1122,VALID,444.054,VALID,25.316,VALID,6,VALID,0,
2016-04-05, 09:53:04,VALID,919.826,VALID,0,VALID,77.9571,VALID,397.317,VALID,25.2965,VALID,25,VALID,0.0121094,
2016-04-05, 09:54:04,VALID,919.798,VALID,0,VALID,77.3929,VALID,374.54,VALID,25.2769,VALID,30,VALID,0.339063,
2016-04-05, 09:55:04,VALID,919.86,VALID,0,VALID,76.6763,VALID,357.457,VALID,25.1598,VALID,25,VALID,0.498047,
2016-04-05, 09:56:04,VALID,919.858,VALID,0,VALID,76.623,VALID,346.713,VALID,25.0426,VALID,17,VALID,0,
2016-04-05, 09:57:04,VALID,919.868,VALID,0,VALID,77.0117,VALID,337.15,VALID,25.1031,VALID,15,VALID,0,
2016-04-05, 09:58:04,VALID,919.873,VALID,0,VALID,77.7436,VALID,334.142,VALID,25.1988,VALID,20,VALID,0,
2016-04-05, 09:59:04,VALID,919.906,VALID,0,VALID,77.7588,VALID,336.506,VALID,25.3179,VALID,38,VALID,0,
2016-04-05, 10:00:04,VALID,919.942,VALID,0,VALID,76.3485,VALID,333.605,VALID,25.2965,VALID,13,VALID,0,
2016-04-05, 10:01:04,VALID,919.927,VALID,0,VALID,76.4629,VALID,329.2,VALID,25.2788,VALID,13,VALID,0,
2016-04-05, 10:02:04,VALID,919.928,VALID,0,VALID,75.7844,VALID,328.555,VALID,25.316,VALID,17,VALID,0,
2016-04-05, 10:03:04,VALID,919.918,VALID,0,VALID,76.966,VALID,330.382,VALID,25.2769,VALID,341,VALID,0,
2016-04-05, 10:04:04,VALID,919.945,VALID,0,VALID,77.6369,VALID,335.861,VALID,25.2965,VALID,341,VALID,0,
2016-04-05, 10:05:04,VALID,919.924,VALID,0,VALID,78.0333,VALID,340.481,VALID,25.355,VALID,26,VALID,0,
2016-04-05, 10:06:04,VALID,919.92,VALID,0,VALID,74.8543,VALID,344.886,VALID,25.4136,VALID,334,VALID,0,
2016-04-05, 10:07:04,VALID,919.975,VALID,0,VALID,76.4019,VALID,350.58,VALID,25.4136,VALID,343,VALID,0,
2016-04-05, 10:08:04,VALID,919.955,VALID,0,VALID,76.8974,VALID,355.845,VALID,25.3746,VALID,359,VALID,0.7375,
2016-04-05, 10:09:04,VALID,919.96,VALID,0,VALID,75.914,VALID,358.961,VALID,25.2593,VALID,26,VALID,0.0964844,
2016-04-05, 10:10:04,VALID,919.949,VALID,0,VALID,77.6216,VALID,365.515,VALID,25.2183,VALID,25,VALID,0,
2016-04-05, 10:11:04,VALID,919.985,VALID,0,VALID,77.2481,VALID,375.399,VALID,25.2203,VALID,18,VALID,0.0121094,
2016-04-05, 10:12:04,VALID,919.963,VALID,0,VALID,80.0382,VALID,383.78,VALID,25.2183,VALID,27,VALID,0,
2016-04-05, 10:13:04,VALID,919.953,VALID,0,VALID,78.7118,VALID,391.408,VALID,25.1793,VALID,18,VALID,0,
2016-04-05, 10:14:04,VALID,919.968,VALID,0,VALID,78.5364,VALID,400.863,VALID,25.2379,VALID,13,VALID,0,
2016-04-05, 10:15:04,VALID,919.97,VALID,0,VALID,77.0041,VALID,411.07,VALID,25.3941,VALID,9,VALID,0,
2016-04-05, 10:16:04,VALID,919.968,VALID,0,VALID,77.4234,VALID,414.615,VALID,25.355,VALID,11,VALID,0,
2016-04-05, 10:17:04,VALID,919.912,VALID,0,VALID,79.253,VALID,417.731,VALID,25.3355,VALID,11,VALID,0,
2016-04-05, 10:18:04,VALID,919.931,VALID,0,VALID,76.7068,VALID,418.913,VALID,25.355,VALID,300,VALID,0,
2016-04-05, 10:19:04,VALID,919.919,VALID,0,VALID,78.1171,VALID,417.301,VALID,25.4136,VALID,300,VALID,0,
2016-04-05, 10:20:04,VALID,919.916,VALID,0,VALID,76.3485,VALID,415.367,VALID,25.4331,VALID,302,VALID,0,
2016-04-05, 10:21:04,VALID,919.908,VALID,0,VALID,77.6597,VALID,416.012,VALID,25.4527,VALID,302,VALID,0,
2016-04-05, 10:22:04,VALID,919.913,VALID,0,VALID,76.196,VALID,421.169,VALID,25.3746,VALID,298,VALID,0,
2016-04-05, 10:23:04,VALID,919.879,VALID,0,VALID,77.0727,VALID,430.517,VALID,25.2183,VALID,299,VALID,0,
2016-04-05, 10:24:04,VALID,919.908,VALID,0,VALID,76.3561,VALID,436.641,VALID,25.1012,VALID,297,VALID,0,
2016-04-05, 10:25:04,VALID,919.884,VALID,0,VALID,77.5073,VALID,442.443,VALID,25.0426,VALID,282,VALID,0,
2016-04-05, 10:26:04,VALID,919.905,VALID,0,VALID,79.4436,VALID,448.997,VALID,25.0036,VALID,283,VALID,0,
2016-04-05, 10:27:04,VALID,919.871,VALID,0,VALID,78.7956,VALID,451.79,VALID,25.0231,VALID,333,VALID,0,
2016-04-05, 10:28:04,VALID,919.891,VALID,0,VALID,78.9557,VALID,451.79,VALID,25.1207,VALID,332,VALID,0,
2016-04-05, 10:29:04,VALID,919.875,VALID,0,VALID,78.201,VALID,449.534,VALID,25.2183,VALID,332,VALID,0,
2016-04-05, 10:30:04,VALID,919.85,VALID,0,VALID,76.6306,VALID,448.674,VALID,25.2965,VALID,293,VALID,0,
2016-04-05, 10:31:04,VALID,919.846,VALID,0,VALID,76.3942,VALID,449.534,VALID,25.1402,VALID,312,VALID,0,
2016-04-05, 10:32:04,VALID,919.842,VALID,0,VALID,76.8821,VALID,454.261,VALID,24.9645,VALID,312,VALID,0,
2016-04-05, 10:33:04,VALID,919.797,VALID,0,VALID,78.0638,VALID,464.898,VALID,24.8474,VALID,288,VALID,0,
2016-04-05, 10:34:04,VALID,919.794,VALID,0,VALID,78.6432,VALID,472.634,VALID,24.945,VALID,288,VALID,0,
2016-04-05, 10:35:04,VALID,919.702,VALID,0,VALID,80.6786,VALID,475.427,VALID,25.0621,VALID,292,VALID,0,
2016-04-05, 10:36:04,VALID,919.725,VALID,0,VALID,77.5987,VALID,479.617,VALID,25.0426,VALID,286,VALID,0,
2016-04-05, 10:37:04,VALID,919.693,VALID,0,VALID,78.8337,VALID,487.998,VALID,24.984,VALID,285,VALID,0,
2016-04-05, 10:38:04,VALID,919.652,VALID,0,VALID,78.1781,VALID,498.849,VALID,25.0817,VALID,285,VALID,0,
2016-04-05, 10:39:04,VALID,919.624,VALID,0,VALID,77.1871,VALID,509.808,VALID,25.2574,VALID,314,VALID,0,
2016-04-05, 10:40:04,VALID,919.613,VALID,0,VALID,76.3256,VALID,520.445,VALID,25.4331,VALID,276,VALID,0,
2016-04-05, 10:41:04,VALID,919.593,VALID,0,VALID,74.7171,VALID,542.255,VALID,25.5113,VALID,255,VALID,0,
2016-04-05, 10:42:04,VALID,919.591,VALID,0,VALID,73.0323,VALID,660.333,VALID,25.7456,VALID,343,VALID,0,
2016-04-05, 10:43:04,VALID,919.563,VALID,0,VALID,71.0884,VALID,526.999,VALID,25.8628,VALID,310,VALID,0,
2016-04-05, 10:44:04,VALID,919.539,VALID,0,VALID,72.8951,VALID,503.577,VALID,25.8042,VALID,318,VALID,0,
2016-04-05, 10:45:04,VALID,919.538,VALID,0,VALID,72.9942,VALID,493.155,VALID,25.9389,VALID,328,VALID,0,
2016-04-05, 10:46:04,VALID,919.55,VALID,0,VALID,72.5139,VALID,489.824,VALID,26.0366,VALID,31,VALID,0,
2016-04-05, 10:47:04,VALID,919.526,VALID,0,VALID,73.444,VALID,492.94,VALID,26.0776,VALID,31,VALID,0,
2016-04-05, 10:48:04,VALID,919.526,VALID,0,VALID,73.0399,VALID,507.337,VALID,26.2124,VALID,31,VALID,0,
2016-04-05, 10:49:04,VALID,919.51,VALID,0,VALID,72.087,VALID,520.445,VALID,26.4663,VALID,31,VALID,0,
2016-04-05, 10:50:04,VALID,919.533,VALID,0,VALID,72.1023,VALID,543.437,VALID,26.7223,VALID,26,VALID,0,
2016-04-05, 10:51:04,VALID,919.501,VALID,0,VALID,70.6691,VALID,564.281,VALID,26.603,VALID,296,VALID,0,
2016-04-05, 10:52:04,VALID,919.485,VALID,0,VALID,71.096,VALID,621.547,VALID,26.4488,VALID,296,VALID,0,
2016-04-05, 10:53:04,VALID,919.48,VALID,0,VALID,71.8659,VALID,652.705,VALID,26.4858,VALID,296,VALID,0,
2016-04-05, 10:54:04,VALID,919.477,VALID,0,VALID,71.8126,VALID,641.424,VALID,26.5269,VALID,296,VALID,0,
2016-04-05, 10:55:04,VALID,919.448,VALID,0,VALID,72.2929,VALID,617.249,VALID,26.5855,VALID,277,VALID,0,